Time,TemperatureF,DewpointF,PressureIn,WindDirection,WindDirectionDegrees,WindSpeedMPH,WindSpeedGustMPH,Humidity,HourlyPrecipIn,Conditions,Clouds,dailyrainin,SoftwareType,DateUTC
2014-01-14 00:00:00,41.5,36.1,29.88,SSW,207,0.0,0.0,81,0.00,,CLR,0.00,VWS V14.01,2014-01-14 05:00:00,
2014-01-14 00:01:00,41.5,36.1,29.88,SSW,207,0.0,1.0,81,0.00,,CLR,0.00,VWS V14.01,2014-01-14 05:01:00,
2014-01-14 00:06:00,41.5,36.1,29.88,SSW,207,0.0,1.0,81,0.00,,CLR,0.00,VWS V14.01,2014-01-14 05:06:00,
2014-01-14 00:11:00,41.4,36.0,29.88,SSW,207,0.0,1.0,81,0.00,,CLR,0.00,VWS V14.01,2014-01-14 05:11:00,
2014-01-14 00:15:00,41.3,35.9,29.88,SSW,207,0.0,1.0,81,0.00,,OVC100,0.00,VWS V14.01,2014-01-14 05:15:00,
2014-01-14 00:16:00,41.2,35.8,29.88,SSW,207,0.0,0.0,81,0.00,,CLR,0.00,VWS V14.01,2014-01-14 05:16:00,
2014-01-14 00:21:00,41.1,35.7,29.88,SSW,207,0.0,1.0,81,0.00,,CLR,0.00,VWS V14.01,2014-01-14 05:21:00,
2014-01-14 00:26:00,41.0,35.6,29.88,SSW,207,0.0,1.0,81,0.00,,CLR,0.00,VWS V14.01,2014-01-14 05:26:00,
2014-01-14 00:30:00,40.9,35.5,29.87,SSW,207,0.0,1.0,81,0.00,,OVC100,0.00,VWS V14.01,2014-01-14 05:30:00,
2014-01-14 00:31:00,40.9,35.8,29.87,SSW,207,0.0,0.0,82,0.00,,CLR,0.00,VWS V14.01,2014-01-14 05:31:00,
2014-01-14 00:36:00,40.8,35.4,29.87,SSW,207,0.0,0.0,81,0.00,,CLR,0.00,VWS V14.01,2014-01-14 05:36:00,
2014-01-14 00:41:00,40.7,35.6,29.88,SSW,207,0.0,0.0,82,0.00,,CLR,0.00,VWS V14.01,2014-01-14 05:41:00,
2014-01-14 00:45:00,40.6,35.5,29.88,SSW,207,1.0,1.0,82,0.00,,OVC100,0.00,VWS V14.01,2014-01-14 05:45:00,
2014-01-14 00:46:00,40.6,35.5,29.88,SSW,207,0.0,1.0,82,0.00,,CLR,0.00,VWS V14.01,2014-01-14 05:46:00,
2014-01-14 00:51:00,40.6,35.8,29.87,SSW,207,0.0,1.0,83,0.00,,CLR,0.00,VWS V14.01,2014-01-14 05:51:00,
2014-01-14 00:56:00,40.3,35.6,29.87,SSW,207,0.0,1.0,83,0.00,,CLR,0.00,VWS V14.01,2014-01-14 05:56:00,
2014-01-14 01:00:00,40.3,35.6,29.86,SSW,207,0.0,1.0,83,0.00,,OVC100,0.00,VWS V14.01,2014-01-14 06:00:00,
2014-01-14 01:01:00,40.2,35.5,29.86,SSW,207,0.0,0.0,83,0.00,,CLR,0.00,VWS V14.01,2014-01-14 06:01:00,
2014-01-14 01:06:00,40.2,35.5,29.86,SSW,207,0.0,1.0,83,0.00,,CLR,0.00,VWS V14.01,2014-01-14 06:06:00,
2014-01-14 01:11:00,40.2,35.5,29.85,SSW,207,0.0,1.0,83,0.00,,CLR,0.00,VWS V14.01,2014-01-14 06:11:00,
2014-01-14 01:15:00,40.2,35.5,29.85,SSW,207,0.0,1.0,83,0.00,,OVC100,0.00,VWS V14.01,2014-01-14 06:15:00,
2014-01-14 01:16:00,40.2,35.5,29.85,SSW,207,0.0,0.0,83,0.00,,CLR,0.00,VWS V14.01,2014-01-14 06:16:00,
2014-01-14 01:21:00,40.1,35.4,29.85,SSW,207,0.0,0.0,83,0.00,,CLR,0.00,VWS V14.01,2014-01-14 06:21:00,
2014-01-14 01:26:00,40.1,35.4,29.85,SSW,207,0.0,0.0,83,0.00,,CLR,0.00,VWS V14.01,2014-01-14 06:26:00,
2014-01-14 01:30:00,40.0,35.6,29.85,SSW,207,0.0,0.0,84,0.00,,OVC100,0.00,VWS V14.01,2014-01-14 06:30:00,
2014-01-14 01:31:00,40.0,35.6,29.85,SSW,207,0.0,0.0,84,0.00,,CLR,0.00,VWS V14.01,2014-01-14 06:31:00,
2014-01-14 01:36:00,40.0,35.6,29.85,SSW,207,0.0,0.0,84,0.00,,CLR,0.00,VWS V14.01,2014-01-14 06:36:00,
2014-01-14 01:38:00,40.0,35.6,29.84,SSW,207,0.0,0.0,84,0.00,,CLR,0.00,VWS V14.01,2014-01-14 06:38:00,
2014-01-14 01:43:00,39.9,35.5,29.85,SSW,207,0.0,0.0,84,0.00,,CLR,0.00,VWS V14.01,2014-01-14 06:43:00,
2014-01-14 01:45:00,39.9,35.5,29.84,SSW,207,0.0,0.0,84,0.00,,OVC100,0.00,VWS V14.01,2014-01-14 06:45:00,
2014-01-14 01:48:00,39.8,35.4,29.85,SSW,207,0.0,0.0,84,0.00,,CLR,0.00,VWS V14.01,2014-01-14 06:48:00,
2014-01-14 01:53:00,39.8,35.4,29.85,SSW,207,0.0,0.0,84,0.00,,CLR,0.00,VWS V14.01,2014-01-14 06:53:00,
2014-01-14 01:58:00,39.8,35.4,29.84,SSW,207,0.0,0.0,84,0.00,,CLR,0.00,VWS V14.01,2014-01-14 06:58:00,
2014-01-14 02:00:00,39.8,35.4,29.84,SSW,207,0.0,0.0,84,0.00,,OVC100,0.00,VWS V14.01,2014-01-14 07:00:00,
2014-01-14 02:03:00,39.8,35.4,29.84,SSW,207,0.0,0.0,84,0.00,,CLR,0.00,VWS V14.01,2014-01-14 07:03:00,
2014-01-14 02:08:00,39.7,35.3,29.84,SSW,207,0.0,0.0,84,0.00,,CLR,0.00,VWS V14.01,2014-01-14 07:08:00,
2014-01-14 02:13:00,39.7,35.3,29.83,SSW,207,0.0,0.0,84,0.00,,CLR,0.00,VWS V14.01,2014-01-14 07:13:00,
2014-01-14 02:15:00,39.6,35.2,29.83,SSW,207,0.0,0.0,84,0.00,,OVC100,0.00,VWS V14.01,2014-01-14 07:15:00,
2014-01-14 02:18:00,39.6,35.2,29.84,SSW,207,0.0,1.0,84,0.00,,CLR,0.00,VWS V14.01,2014-01-14 07:18:00,
2014-01-14 02:23:00,39.5,35.1,29.85,SSW,207,0.0,1.0,84,0.00,,CLR,0.00,VWS V14.01,2014-01-14 07:23:00,
2014-01-14 02:28:00,39.5,35.1,29.85,SSW,207,0.0,1.0,84,0.00,,CLR,0.00,VWS V14.01,2014-01-14 07:28:00,
2014-01-14 02:30:00,39.4,35.0,29.84,SSW,207,0.0,1.0,84,0.00,,OVC100,0.00,VWS V14.01,2014-01-14 07:30:00,
2014-01-14 02:33:00,39.4,35.0,29.84,SSW,207,0.0,0.0,84,0.00,,CLR,0.00,VWS V14.01,2014-01-14 07:33:00,
2014-01-14 02:38:00,39.3,35.2,29.84,SSW,207,0.0,0.0,85,0.00,,CLR,0.00,VWS V14.01,2014-01-14 07:38:00,
2014-01-14 02:43:00,39.3,35.2,29.83,SSW,207,0.0,0.0,85,0.00,,CLR,0.00,VWS V14.01,2014-01-14 07:43:00,
2014-01-14 02:45:00,39.3,35.2,29.83,SSW,207,0.0,0.0,85,0.00,,OVC100,0.00,VWS V14.01,2014-01-14 07:45:00,
2014-01-14 02:48:00,39.3,35.2,29.83,SSW,207,1.0,2.0,85,0.00,,CLR,0.00,VWS V14.01,2014-01-14 07:48:00,
2014-01-14 02:53:00,39.1,35.0,29.83,SSW,207,0.0,2.0,85,0.00,,CLR,0.00,VWS V14.01,2014-01-14 07:53:00,
2014-01-14 02:58:00,39.0,34.9,29.82,SSW,207,0.0,2.0,85,0.00,,CLR,0.00,VWS V14.01,2014-01-14 07:58:00,
2014-01-14 03:00:00,39.0,34.9,29.82,SSW,207,0.0,2.0,85,0.00,,CLR,0.00,VWS V14.01,2014-01-14 08:00:00,
2014-01-14 03:03:00,39.0,34.9,29.82,SSW,207,0.0,0.0,85,0.00,,CLR,0.00,VWS V14.01,2014-01-14 08:03:00,
2014-01-14 03:08:00,39.0,34.9,29.83,SSW,207,0.0,1.0,85,0.00,,CLR,0.00,VWS V14.01,2014-01-14 08:08:00,
2014-01-14 03:13:00,39.0,34.9,29.82,SSW,207,0.0,1.0,85,0.00,,CLR,0.00,VWS V14.01,2014-01-14 08:13:00,
2014-01-14 03:15:00,38.9,34.8,29.82,SSW,207,0.0,1.0,85,0.00,,OVC100,0.00,VWS V14.01,2014-01-14 08:15:00,
2014-01-14 03:18:00,38.9,34.8,29.81,SSW,207,0.0,0.0,85,0.00,,CLR,0.00,VWS V14.01,2014-01-14 08:18:00,
2014-01-14 03:23:00,38.9,35.1,29.81,SSW,207,0.0,0.0,86,0.00,,CLR,0.00,VWS V14.01,2014-01-14 08:23:00,
2014-01-14 03:28:00,38.9,35.1,29.81,SSW,207,0.0,0.0,86,0.00,,CLR,0.00,VWS V14.01,2014-01-14 08:28:00,
2014-01-14 03:30:00,38.9,35.1,29.81,SSW,207,0.0,0.0,86,0.00,,CLR,0.00,VWS V14.01,2014-01-14 08:30:00,
2014-01-14 03:33:00,38.8,35.0,29.81,SSW,207,0.0,0.0,86,0.00,,CLR,0.00,VWS V14.01,2014-01-14 08:33:00,
2014-01-14 03:38:00,38.8,35.0,29.81,SSW,207,0.0,0.0,86,0.00,,CLR,0.00,VWS V14.01,2014-01-14 08:38:00,
2014-01-14 03:43:00,38.7,34.9,29.81,SSW,207,0.0,0.0,86,0.00,,CLR,0.00,VWS V14.01,2014-01-14 08:43:00,
2014-01-14 03:45:00,38.7,34.9,29.80,SSW,207,0.0,0.0,86,0.00,,OVC100,0.00,VWS V14.01,2014-01-14 08:45:00,
2014-01-14 03:48:00,38.7,34.9,29.81,SSW,207,0.0,0.0,86,0.00,,CLR,0.00,VWS V14.01,2014-01-14 08:48:00,
2014-01-14 03:52:00,38.6,34.8,29.81,SSW,207,0.0,1.0,86,0.00,,CLR,0.00,VWS V14.01,2014-01-14 08:52:00,
2014-01-14 03:57:00,38.7,34.9,29.81,SSW,207,0.0,1.0,86,0.00,,CLR,0.00,VWS V14.01,2014-01-14 08:57:00,
2014-01-14 04:00:00,38.7,34.9,29.82,SSW,207,0.0,1.0,86,0.00,,OVC100,0.00,VWS V14.01,2014-01-14 09:00:00,
2014-01-14 04:03:00,38.7,35.2,29.82,SSW,207,0.0,0.0,87,0.00,,CLR,0.00,VWS V14.01,2014-01-14 09:03:00,
2014-01-14 04:08:00,38.7,35.2,29.82,SSW,207,0.0,0.0,87,0.00,,CLR,0.00,VWS V14.01,2014-01-14 09:08:00,
2014-01-14 04:13:00,38.6,34.8,29.82,SSW,207,0.0,0.0,86,0.00,,CLR,0.00,VWS V14.01,2014-01-14 09:13:00,
2014-01-14 04:15:00,38.6,34.8,29.82,SSW,207,0.0,0.0,86,0.00,,OVC100,0.00,VWS V14.01,2014-01-14 09:15:00,
2014-01-14 04:18:00,38.6,34.8,29.81,SSW,207,0.0,0.0,86,0.00,,CLR,0.00,VWS V14.01,2014-01-14 09:18:00,
2014-01-14 04:23:00,38.5,34.7,29.80,SSW,207,0.0,0.0,86,0.00,,CLR,0.00,VWS V14.01,2014-01-14 09:23:00,
2014-01-14 04:28:00,38.4,34.6,29.80,SSW,207,0.0,0.0,86,0.00,,CLR,0.00,VWS V14.01,2014-01-14 09:28:00,
2014-01-14 04:30:00,38.4,34.6,29.80,SSW,207,0.0,0.0,86,0.00,,OVC100,0.00,VWS V14.01,2014-01-14 09:30:00,
2014-01-14 04:33:00,38.4,34.6,29.80,SSW,207,0.0,0.0,86,0.00,,CLR,0.00,VWS V14.01,2014-01-14 09:33:00,
2014-01-14 04:38:00,38.4,34.9,29.80,SSW,207,0.0,1.0,87,0.00,,CLR,0.00,VWS V14.01,2014-01-14 09:38:00,
2014-01-14 04:42:00,38.4,34.9,29.81,SSW,207,0.0,1.0,87,0.00,,CLR,0.00,VWS V14.01,2014-01-14 09:42:00,
2014-01-14 04:45:00,38.4,34.9,29.81,SSW,207,0.0,1.0,87,0.00,,OVC100,0.00,VWS V14.01,2014-01-14 09:45:00,
2014-01-14 04:47:00,38.4,34.9,29.81,SSW,207,0.0,0.0,87,0.00,,CLR,0.00,VWS V14.01,2014-01-14 09:47:00,
2014-01-14 04:52:00,38.4,34.9,29.81,SSW,207,0.0,1.0,87,0.00,,CLR,0.00,VWS V14.01,2014-01-14 09:52:00,
2014-01-14 04:57:00,38.4,34.9,29.80,SSW,207,0.0,2.0,87,0.00,,CLR,0.00,VWS V14.01,2014-01-14 09:57:00,
2014-01-14 05:00:00,38.4,34.9,29.80,SSW,207,0.0,2.0,87,0.00,,OVC100,0.00,VWS V14.01,2014-01-14 10:00:00,
2014-01-14 05:02:00,38.4,34.9,29.80,SSW,207,0.0,0.0,87,0.00,,OVC100,0.00,VWS V14.01,2014-01-14 10:02:00,
2014-01-14 05:07:00,38.4,34.9,29.81,SSW,207,0.0,1.0,87,0.00,,OVC100,0.00,VWS V14.01,2014-01-14 10:07:00,
2014-01-14 05:12:00,38.4,34.9,29.80,SSW,207,0.0,1.0,87,0.00,,OVC100,0.00,VWS V14.01,2014-01-14 10:12:00,
2014-01-14 05:15:00,38.4,34.9,29.80,SSW,207,0.0,1.0,87,0.00,,OVC100,0.00,VWS V14.01,2014-01-14 10:15:00,
2014-01-14 05:17:00,38.4,34.9,29.81,SSW,207,0.0,0.0,87,0.00,,OVC100,0.00,VWS V14.01,2014-01-14 10:17:00,
2014-01-14 05:22:00,38.5,35.3,29.81,SSW,207,0.0,0.0,88,0.00,,OVC100,0.00,VWS V14.01,2014-01-14 10:22:00,
2014-01-14 05:27:00,38.6,35.4,29.81,SSW,207,0.0,1.0,88,0.00,,OVC100,0.00,VWS V14.01,2014-01-14 10:27:00,
2014-01-14 05:30:00,38.7,35.5,29.82,SSW,207,0.0,1.0,88,0.00,,OVC100,0.00,VWS V14.01,2014-01-14 10:30:00,
2014-01-14 05:32:00,38.8,35.6,29.82,SSW,207,0.0,0.0,88,0.00,,OVC100,0.00,VWS V14.01,2014-01-14 10:32:00,
2014-01-14 05:37:00,39.1,36.1,29.82,SSW,207,0.0,0.0,89,0.00,,OVC100,0.00,VWS V14.01,2014-01-14 10:37:00,
2014-01-14 05:42:00,39.3,36.3,29.82,SSW,207,0.0,1.0,89,0.00,,OVC100,0.00,VWS V14.01,2014-01-14 10:42:00,
2014-01-14 05:45:00,39.5,36.5,29.82,SSW,207,0.0,1.0,89,0.00,,OVC100,0.00,VWS V14.01,2014-01-14 10:45:00,
2014-01-14 05:47:00,39.7,36.7,29.82,SSW,207,0.0,2.0,89,0.00,,OVC100,0.00,VWS V14.01,2014-01-14 10:47:00,
2014-01-14 05:52:00,39.9,36.9,29.82,SSW,207,0.0,2.0,89,0.00,,OVC100,0.00,VWS V14.01,2014-01-14 10:52:00,
2014-01-14 05:57:00,40.0,37.0,29.81,SSW,207,0.0,2.0,89,0.00,,OVC100,0.00,VWS V14.01,2014-01-14 10:57:00,
2014-01-14 06:00:00,40.1,37.1,29.81,SSW,207,0.0,2.0,89,0.00,,OVC100,0.00,VWS V14.01,2014-01-14 11:00:00,
2014-01-14 06:02:00,40.2,37.2,29.80,SSW,207,0.0,0.0,89,0.00,,OVC090,0.00,VWS V14.01,2014-01-14 11:02:00,
2014-01-14 06:07:00,40.5,37.8,29.81,ESE,121,0.0,1.0,90,0.00,,OVC090,0.00,VWS V14.01,2014-01-14 11:07:00,
2014-01-14 06:12:00,40.7,38.0,29.81,ESE,121,0.0,1.0,90,0.00,,OVC090,0.00,VWS V14.01,2014-01-14 11:12:00,
2014-01-14 06:15:00,40.7,38.0,29.81,ESE,121,0.0,1.0,90,0.00,,CLR,0.00,VWS V14.01,2014-01-14 11:15:00,
2014-01-14 06:17:00,40.9,38.2,29.80,ESE,121,0.0,0.0,90,0.00,,OVC090,0.00,VWS V14.01,2014-01-14 11:17:00,
2014-01-14 06:22:00,41.0,38.3,29.80,ESE,121,0.0,0.0,90,0.00,,OVC090,0.00,VWS V14.01,2014-01-14 11:22:00,
2014-01-14 06:27:00,41.1,38.4,29.80,ESE,121,0.0,0.0,90,0.00,,OVC090,0.00,VWS V14.01,2014-01-14 11:27:00,
2014-01-14 06:30:00,41.1,38.4,29.79,ESE,121,0.0,0.0,90,0.00,,OVC100,0.00,VWS V14.01,2014-01-14 11:30:00,
2014-01-14 06:32:00,41.2,38.5,29.79,ESE,121,0.0,0.0,90,0.00,,OVC090,0.00,VWS V14.01,2014-01-14 11:32:00,
2014-01-14 06:37:00,41.4,38.7,29.79,ESE,121,0.0,0.0,90,0.00,,OVC090,0.00,VWS V14.01,2014-01-14 11:37:00,
2014-01-14 06:42:00,41.5,38.8,29.78,ESE,121,0.0,0.0,90,0.00,,OVC090,0.00,VWS V14.01,2014-01-14 11:42:00,
2014-01-14 06:45:00,41.6,38.9,29.78,ESE,121,0.0,0.0,90,0.00,,CLR,0.00,VWS V14.01,2014-01-14 11:45:00,
2014-01-14 06:47:00,41.6,38.9,29.77,ESE,121,0.0,0.0,90,0.00,,OVC090,0.00,VWS V14.01,2014-01-14 11:47:00,
2014-01-14 06:52:00,41.8,39.1,29.77,ESE,121,0.0,0.0,90,0.00,,OVC090,0.00,VWS V14.01,2014-01-14 11:52:00,
2014-01-14 06:57:00,41.8,39.1,29.77,ESE,121,0.0,1.0,90,0.00,,OVC090,0.00,VWS V14.01,2014-01-14 11:57:00,
2014-01-14 07:00:00,41.8,39.1,29.77,ESE,121,0.0,1.0,90,0.00,,OVC100,0.00,VWS V14.01,2014-01-14 12:00:00,
2014-01-14 07:02:00,41.8,39.1,29.78,ESE,121,0.0,0.0,90,0.00,,-RA,0.00,VWS V14.01,2014-01-14 12:02:00,
2014-01-14 07:07:00,41.7,39.0,29.78,SSE,166,2.0,4.0,90,0.00,,-RA,0.00,VWS V14.01,2014-01-14 12:07:00,
2014-01-14 07:12:00,41.6,38.9,29.79,SSE,166,0.0,4.0,90,0.00,,-RA,0.00,VWS V14.01,2014-01-14 12:12:00,
2014-01-14 07:15:00,41.6,38.9,29.79,SSE,166,0.0,4.0,90,0.00,,OVC100,0.00,VWS V14.01,2014-01-14 12:15:00,
2014-01-14 07:17:00,41.5,38.8,29.79,SSE,166,0.0,0.0,90,0.00,,-RA,0.00,VWS V14.01,2014-01-14 12:17:00,
2014-01-14 07:22:00,41.6,38.9,29.79,SSE,166,0.0,0.0,90,0.00,,-RA,0.00,VWS V14.01,2014-01-14 12:22:00,
2014-01-14 07:27:00,41.6,38.9,29.79,SSE,166,0.0,0.0,90,0.00,,-RA,0.00,VWS V14.01,2014-01-14 12:27:00,
2014-01-14 07:30:00,41.6,38.9,29.80,SSE,166,0.0,0.0,90,0.00,,OVC100,0.00,VWS V14.01,2014-01-14 12:30:00,
2014-01-14 07:32:00,41.5,38.8,29.80,SSE,166,0.0,1.0,90,0.00,,-RA,0.00,VWS V14.01,2014-01-14 12:32:00,
2014-01-14 07:37:00,41.5,38.8,29.81,SSE,166,0.0,1.0,90,0.00,,-RA,0.00,VWS V14.01,2014-01-14 12:37:00,
2014-01-14 07:42:00,41.4,38.7,29.81,SSE,166,0.0,1.0,90,0.00,,-RA,0.00,VWS V14.01,2014-01-14 12:42:00,
2014-01-14 07:45:00,41.4,38.7,29.81,SSE,166,0.0,1.0,90,0.01,,OVC100,0.01,VWS V14.01,2014-01-14 12:45:00,
2014-01-14 07:47:00,41.4,38.7,29.81,SSE,166,0.0,0.0,90,0.01,,-RA,0.01,VWS V14.01,2014-01-14 12:47:00,
2014-01-14 07:52:00,41.4,38.7,29.81,SSE,166,0.0,0.0,90,0.01,,-RA,0.01,VWS V14.01,2014-01-14 12:52:00,
2014-01-14 07:57:00,41.4,38.7,29.81,SSE,166,0.0,0.0,90,0.01,,-RA,0.01,VWS V14.01,2014-01-14 12:57:00,
2014-01-14 08:00:00,41.4,38.7,29.81,SSE,166,0.0,0.0,90,0.01,,CLR,0.01,VWS V14.01,2014-01-14 13:00:00,
2014-01-14 08:02:00,41.4,38.7,29.81,SSE,166,0.0,0.0,90,0.01,,-RA,0.01,VWS V14.01,2014-01-14 13:02:00,
2014-01-14 08:07:00,41.5,38.8,29.81,SSE,166,0.0,0.0,90,0.01,,-RA,0.01,VWS V14.01,2014-01-14 13:07:00,
2014-01-14 08:12:00,41.5,38.8,29.81,SSE,166,0.0,0.0,90,0.01,,-RA,0.01,VWS V14.01,2014-01-14 13:12:00,
2014-01-14 08:15:00,41.5,38.8,29.80,SSE,166,0.0,0.0,90,0.01,,OVC100,0.01,VWS V14.01,2014-01-14 13:15:00,
2014-01-14 08:17:00,41.5,38.8,29.80,SSE,166,0.0,0.0,90,0.01,,-RA,0.01,VWS V14.01,2014-01-14 13:17:00,
2014-01-14 08:22:00,41.6,38.9,29.80,SSE,166,0.0,0.0,90,0.01,,-RA,0.01,VWS V14.01,2014-01-14 13:22:00,
2014-01-14 08:27:00,41.6,38.9,29.79,SSE,166,0.0,0.0,90,0.01,,-RA,0.01,VWS V14.01,2014-01-14 13:27:00,
2014-01-14 08:30:00,41.6,38.9,29.80,SSE,166,0.0,0.0,90,0.01,,OVC100,0.01,VWS V14.01,2014-01-14 13:30:00,
2014-01-14 08:32:00,41.7,39.0,29.80,SSE,166,0.0,0.0,90,0.01,,-RA,0.01,VWS V14.01,2014-01-14 13:32:00,
2014-01-14 08:37:00,41.8,39.1,29.79,SSE,166,0.0,0.0,90,0.01,,-RA,0.01,VWS V14.01,2014-01-14 13:37:00,
2014-01-14 08:42:00,41.8,39.1,29.79,SSE,166,0.0,0.0,90,0.01,,-RA,0.01,VWS V14.01,2014-01-14 13:42:00,
2014-01-14 08:45:00,41.8,39.1,29.80,SSE,166,0.0,0.0,90,0.01,,OVC100,0.01,VWS V14.01,2014-01-14 13:45:00,
2014-01-14 08:47:00,41.8,39.1,29.80,SSE,166,0.0,0.0,90,0.00,,-RA,0.01,VWS V14.01,2014-01-14 13:47:00,
2014-01-14 08:52:00,41.8,39.1,29.80,SSE,166,0.0,0.0,90,0.01,,-RA,0.02,VWS V14.01,2014-01-14 13:52:00,
2014-01-14 08:57:00,41.8,39.1,29.80,SSE,166,0.0,0.0,90,0.01,,-RA,0.02,VWS V14.01,2014-01-14 13:57:00,
2014-01-14 09:00:00,41.8,39.1,29.80,SSE,166,0.0,0.0,90,0.01,,OVC100,0.02,VWS V14.01,2014-01-14 14:00:00,
2014-01-14 09:02:00,41.8,39.4,29.79,SSE,166,0.0,0.0,91,0.01,,-RA,0.02,VWS V14.01,2014-01-14 14:02:00,
2014-01-14 09:07:00,41.9,39.5,29.80,SSE,166,0.0,0.0,91,0.01,,-RA,0.02,VWS V14.01,2014-01-14 14:07:00,
2014-01-14 09:12:00,42.0,39.6,29.80,SSE,166,0.0,0.0,91,0.01,,-RA,0.02,VWS V14.01,2014-01-14 14:12:00,
2014-01-14 09:15:00,42.0,39.6,29.80,SSE,166,0.0,0.0,91,0.01,,OVC100,0.02,VWS V14.01,2014-01-14 14:15:00,
2014-01-14 09:17:00,42.0,39.6,29.80,SSE,166,0.0,0.0,91,0.01,,-RA,0.02,VWS V14.01,2014-01-14 14:17:00,
2014-01-14 09:22:00,42.1,39.7,29.81,SSE,166,0.0,0.0,91,0.01,,-RA,0.02,VWS V14.01,2014-01-14 14:22:00,
2014-01-14 09:27:00,42.1,39.7,29.80,SSE,166,0.0,0.0,91,0.01,,-RA,0.02,VWS V14.01,2014-01-14 14:27:00,
2014-01-14 09:30:00,42.2,39.8,29.80,SSE,166,0.0,0.0,91,0.01,,OVC100,0.02,VWS V14.01,2014-01-14 14:30:00,
2014-01-14 09:32:00,42.2,39.8,29.80,SSE,166,0.0,0.0,91,0.02,,-RA,0.03,VWS V14.01,2014-01-14 14:32:00,
2014-01-14 09:37:00,42.3,39.9,29.80,SSE,166,0.0,0.0,91,0.02,,-RA,0.03,VWS V14.01,2014-01-14 14:37:00,
2014-01-14 09:42:00,42.3,39.9,29.80,SSE,166,0.0,1.0,91,0.02,,-RA,0.03,VWS V14.01,2014-01-14 14:42:00,
2014-01-14 09:45:00,42.4,40.0,29.80,SSE,166,0.0,1.0,91,0.02,,CLR,0.03,VWS V14.01,2014-01-14 14:45:00,
2014-01-14 09:47:00,42.4,40.0,29.80,SSE,166,0.0,0.0,91,0.02,,-RA,0.03,VWS V14.01,2014-01-14 14:47:00,
2014-01-14 09:52:00,42.4,40.0,29.80,SSE,166,0.0,0.0,91,0.02,,-RA,0.03,VWS V14.01,2014-01-14 14:52:00,
2014-01-14 09:57:00,42.5,40.1,29.79,SSE,166,0.0,0.0,91,0.02,,-RA,0.03,VWS V14.01,2014-01-14 14:57:00,
2014-01-14 10:00:00,42.5,40.1,29.79,SSE,166,0.0,0.0,91,0.02,,OVC100,0.03,VWS V14.01,2014-01-14 15:00:00,
2014-01-14 10:02:00,42.6,40.2,29.78,SSE,166,0.0,0.0,91,0.01,,-RA,0.03,VWS V14.01,2014-01-14 15:02:00,
2014-01-14 10:07:00,42.7,40.3,29.78,SSE,166,0.0,0.0,91,0.01,,-RA,0.03,VWS V14.01,2014-01-14 15:07:00,
2014-01-14 10:12:00,42.7,40.3,29.77,SSE,166,0.0,0.0,91,0.01,,-RA,0.03,VWS V14.01,2014-01-14 15:12:00,
2014-01-14 10:15:00,42.7,40.3,29.77,SSE,166,0.0,0.0,91,0.01,,OVC100,0.03,VWS V14.01,2014-01-14 15:15:00,
2014-01-14 10:17:00,42.8,40.4,29.77,SSE,166,0.0,0.0,91,0.01,,-RA,0.03,VWS V14.01,2014-01-14 15:17:00,
2014-01-14 10:22:00,42.9,40.5,29.78,SSE,166,0.0,0.0,91,0.02,,-RA,0.04,VWS V14.01,2014-01-14 15:22:00,
2014-01-14 10:27:00,43.0,40.6,29.77,SSE,166,0.0,0.0,91,0.02,,-RA,0.04,VWS V14.01,2014-01-14 15:27:00,
2014-01-14 10:30:00,43.0,40.6,29.77,SSE,166,0.0,0.0,91,0.02,,CLR,0.04,VWS V14.01,2014-01-14 15:30:00,
2014-01-14 10:32:00,43.1,40.7,29.77,SE,136,0.0,0.0,91,0.02,,-RA,0.04,VWS V14.01,2014-01-14 15:32:00,
2014-01-14 10:37:00,43.2,40.8,29.76,SE,136,0.0,0.0,91,0.02,,-RA,0.04,VWS V14.01,2014-01-14 15:37:00,
2014-01-14 10:42:00,43.2,41.0,29.75,SE,136,0.0,0.0,92,0.02,,-RA,0.04,VWS V14.01,2014-01-14 15:42:00,
2014-01-14 10:45:00,43.2,41.0,29.75,SE,136,0.0,0.0,92,0.02,,OVC100,0.04,VWS V14.01,2014-01-14 15:45:00,
2014-01-14 10:47:00,43.2,41.0,29.75,SE,136,0.0,0.0,92,0.01,,-RA,0.04,VWS V14.01,2014-01-14 15:47:00,
2014-01-14 10:52:00,43.3,41.1,29.75,SE,136,0.0,0.0,92,0.01,,-RA,0.04,VWS V14.01,2014-01-14 15:52:00,
2014-01-14 10:57:00,43.3,40.8,29.75,SE,136,0.0,0.0,91,0.02,,-RA,0.05,VWS V14.01,2014-01-14 15:57:00,
2014-01-14 11:00:00,43.3,40.8,29.76,SE,136,0.0,0.0,91,0.02,,OVC100,0.05,VWS V14.01,2014-01-14 16:00:00,
2014-01-14 11:02:00,43.3,40.8,29.76,SE,136,0.0,0.0,91,0.02,,-RA,0.05,VWS V14.01,2014-01-14 16:02:00,
2014-01-14 11:07:00,43.4,41.0,29.75,SE,136,0.0,0.0,91,0.02,,-RA,0.05,VWS V14.01,2014-01-14 16:07:00,
2014-01-14 11:12:00,43.4,41.0,29.75,SE,136,0.0,0.0,91,0.02,,-RA,0.05,VWS V14.01,2014-01-14 16:12:00,
2014-01-14 11:15:00,43.4,41.0,29.74,SE,136,0.0,0.0,91,0.02,,OVC100,0.05,VWS V14.01,2014-01-14 16:15:00,
2014-01-14 11:17:00,43.5,41.0,29.74,SE,136,0.0,0.0,91,0.02,,-RA,0.05,VWS V14.01,2014-01-14 16:17:00,
2014-01-14 11:22:00,43.5,41.0,29.75,SE,136,0.0,0.0,91,0.02,,-RA,0.05,VWS V14.01,2014-01-14 16:22:00,
2014-01-14 11:27:00,43.5,41.0,29.74,SE,136,0.0,0.0,91,0.02,,-RA,0.05,VWS V14.01,2014-01-14 16:27:00,
2014-01-14 11:30:00,43.5,41.0,29.74,SE,136,0.0,0.0,91,0.02,,OVC100,0.05,VWS V14.01,2014-01-14 16:30:00,
2014-01-14 11:32:00,43.6,41.2,29.74,SE,136,0.0,0.0,91,0.01,,-RA,0.05,VWS V14.01,2014-01-14 16:32:00,
2014-01-14 11:37:00,43.6,41.4,29.73,SE,136,0.0,0.0,92,0.01,,-RA,0.05,VWS V14.01,2014-01-14 16:37:00,
2014-01-14 11:42:00,43.6,41.4,29.73,SE,136,0.0,0.0,92,0.01,,-RA,0.05,VWS V14.01,2014-01-14 16:42:00,
2014-01-14 11:45:00,43.6,41.4,29.72,SE,136,0.0,0.0,92,0.01,,CLR,0.05,VWS V14.01,2014-01-14 16:45:00,
2014-01-14 11:47:00,43.6,41.4,29.72,SE,136,0.0,0.0,92,0.01,,-RA,0.05,VWS V14.01,2014-01-14 16:47:00,
2014-01-14 11:52:00,43.7,41.5,29.72,SE,136,0.0,0.0,92,0.02,,-RA,0.06,VWS V14.01,2014-01-14 16:52:00,
2014-01-14 11:57:00,43.7,41.5,29.73,SE,136,0.0,0.0,92,0.02,,-RA,0.06,VWS V14.01,2014-01-14 16:57:00,
2014-01-14 12:00:00,43.7,41.5,29.73,SE,136,0.0,0.0,92,0.02,,OVC100,0.06,VWS V14.01,2014-01-14 17:00:00,
2014-01-14 12:02:00,43.7,41.5,29.73,SE,136,0.0,0.0,92,0.01,,-RA,0.06,VWS V14.01,2014-01-14 17:02:00,
2014-01-14 12:07:00,43.8,41.6,29.72,SE,136,0.0,0.0,92,0.01,,-RA,0.06,VWS V14.01,2014-01-14 17:07:00,
2014-01-14 12:12:00,43.8,41.6,29.72,SE,136,0.0,0.0,92,0.01,,-RA,0.06,VWS V14.01,2014-01-14 17:12:00,
2014-01-14 12:15:00,43.8,41.6,29.72,SE,136,0.0,0.0,92,0.01,,OVC100,0.06,VWS V14.01,2014-01-14 17:15:00,
2014-01-14 12:17:00,43.8,41.6,29.72,SE,136,0.0,0.0,92,0.01,,-RA,0.06,VWS V14.01,2014-01-14 17:17:00,
2014-01-14 12:22:00,43.8,41.6,29.71,SE,136,0.0,0.0,92,0.02,,-RA,0.07,VWS V14.01,2014-01-14 17:22:00,
2014-01-14 12:27:00,43.8,41.6,29.71,SE,136,0.0,0.0,92,0.02,,-RA,0.07,VWS V14.01,2014-01-14 17:27:00,
2014-01-14 12:30:00,43.8,41.6,29.71,SE,136,0.0,0.0,92,0.02,,OVC100,0.07,VWS V14.01,2014-01-14 17:30:00,
2014-01-14 12:32:00,43.8,41.6,29.70,SE,136,0.0,0.0,92,0.02,,-RA,0.07,VWS V14.01,2014-01-14 17:32:00,
2014-01-14 12:37:00,43.8,41.6,29.70,SE,136,0.0,0.0,92,0.02,,-RA,0.07,VWS V14.01,2014-01-14 17:37:00,
2014-01-14 12:42:00,43.8,41.6,29.71,SE,136,0.0,0.0,92,0.02,,-RA,0.07,VWS V14.01,2014-01-14 17:42:00,
2014-01-14 12:45:00,43.8,41.6,29.70,SE,136,0.0,0.0,92,0.02,,OVC100,0.07,VWS V14.01,2014-01-14 17:45:00,
2014-01-14 12:47:00,43.7,41.5,29.70,SE,136,0.0,0.0,92,0.02,,-RA,0.07,VWS V14.01,2014-01-14 17:47:00,
2014-01-14 12:52:00,43.7,41.5,29.70,SE,136,0.0,0.0,92,0.02,,-RA,0.07,VWS V14.01,2014-01-14 17:52:00,
2014-01-14 12:57:00,43.6,41.4,29.69,SE,136,0.0,0.0,92,0.02,,-RA,0.07,VWS V14.01,2014-01-14 17:57:00,
2014-01-14 13:00:00,43.6,41.4,29.70,SE,136,0.0,0.0,92,0.02,,OVC100,0.07,VWS V14.01,2014-01-14 18:00:00,
2014-01-14 13:02:00,43.6,41.4,29.70,SE,136,0.0,0.0,92,0.01,,-RA,0.07,VWS V14.01,2014-01-14 18:02:00,
2014-01-14 13:07:00,43.6,41.4,29.70,SE,136,0.0,0.0,92,0.02,,-RA,0.08,VWS V14.01,2014-01-14 18:07:00,
2014-01-14 13:12:00,43.5,41.3,29.69,SE,136,0.0,0.0,92,0.02,,-RA,0.08,VWS V14.01,2014-01-14 18:12:00,
2014-01-14 13:15:00,43.5,41.3,29.69,SE,136,0.0,0.0,92,0.02,,OVC100,0.08,VWS V14.01,2014-01-14 18:15:00,
2014-01-14 13:17:00,43.5,41.3,29.69,SE,136,0.0,0.0,92,0.02,,-RA,0.08,VWS V14.01,2014-01-14 18:17:00,
2014-01-14 13:22:00,43.5,41.3,29.69,SE,136,0.0,0.0,92,0.02,,-RA,0.08,VWS V14.01,2014-01-14 18:22:00,
2014-01-14 13:27:00,43.4,41.2,29.69,SE,136,0.0,0.0,92,0.03,,-RA,0.09,VWS V14.01,2014-01-14 18:27:00,
2014-01-14 13:30:00,43.4,41.2,29.69,SE,136,0.0,0.0,92,0.03,,CLR,0.09,VWS V14.01,2014-01-14 18:30:00,
2014-01-14 13:32:00,43.4,41.2,29.69,SE,136,0.0,0.0,92,0.02,,-RA,0.09,VWS V14.01,2014-01-14 18:32:00,
2014-01-14 13:37:00,43.4,41.2,29.68,SE,136,0.0,0.0,92,0.02,,-RA,0.09,VWS V14.01,2014-01-14 18:37:00,
2014-01-14 13:42:00,43.4,41.2,29.68,SE,136,0.0,0.0,92,0.02,,-RA,0.09,VWS V14.01,2014-01-14 18:42:00,
2014-01-14 13:45:00,43.4,41.2,29.68,SE,136,0.0,0.0,92,0.02,,OVC100,0.09,VWS V14.01,2014-01-14 18:45:00,
2014-01-14 13:47:00,43.4,41.2,29.68,SE,136,0.0,0.0,92,0.02,,-RA,0.09,VWS V14.01,2014-01-14 18:47:00,
2014-01-14 13:52:00,43.4,41.2,29.68,SE,136,0.0,0.0,92,0.02,,-RA,0.09,VWS V14.01,2014-01-14 18:52:00,
2014-01-14 13:57:00,43.4,41.2,29.67,SE,136,0.0,0.0,92,0.02,,-RA,0.09,VWS V14.01,2014-01-14 18:57:00,
2014-01-14 14:00:00,43.5,41.3,29.67,SE,136,0.0,0.0,92,0.02,,OVC100,0.09,VWS V14.01,2014-01-14 19:00:00,
2014-01-14 14:02:00,43.5,41.3,29.67,SE,136,0.0,0.0,92,0.03,,-RA,0.10,VWS V14.01,2014-01-14 19:02:00,
2014-01-14 14:07:00,43.5,41.3,29.66,SE,136,0.0,0.0,92,0.03,,-RA,0.10,VWS V14.01,2014-01-14 19:07:00,
2014-01-14 14:12:00,43.5,41.3,29.67,SE,136,0.0,0.0,92,0.03,,-RA,0.10,VWS V14.01,2014-01-14 19:12:00,
2014-01-14 14:15:00,43.6,41.4,29.66,SE,136,0.0,0.0,92,0.03,,OVC100,0.10,VWS V14.01,2014-01-14 19:15:00,
2014-01-14 14:17:00,43.6,41.4,29.66,SE,136,0.0,0.0,92,0.02,,-RA,0.10,VWS V14.01,2014-01-14 19:17:00,
2014-01-14 14:22:00,43.7,41.5,29.66,SE,136,0.0,0.0,92,0.02,,-RA,0.10,VWS V14.01,2014-01-14 19:22:00,
2014-01-14 14:27:00,43.7,41.5,29.66,SE,136,0.0,0.0,92,0.03,,-RA,0.11,VWS V14.01,2014-01-14 19:27:00,
2014-01-14 14:30:00,43.7,41.5,29.66,SE,136,0.0,0.0,92,0.03,,OVC100,0.11,VWS V14.01,2014-01-14 19:30:00,
2014-01-14 14:32:00,43.7,41.5,29.66,SE,136,0.0,0.0,92,0.02,,-RA,0.11,VWS V14.01,2014-01-14 19:32:00,
2014-01-14 14:37:00,43.7,41.5,29.65,SE,136,0.0,0.0,92,0.02,,-RA,0.11,VWS V14.01,2014-01-14 19:37:00,
2014-01-14 14:42:00,43.6,41.4,29.65,SE,136,0.0,0.0,92,0.02,,-RA,0.11,VWS V14.01,2014-01-14 19:42:00,
2014-01-14 14:45:00,43.5,41.3,29.66,SE,136,0.0,1.0,92,0.02,,OVC100,0.11,VWS V14.01,2014-01-14 19:45:00,
2014-01-14 14:47:00,43.5,41.3,29.66,SE,136,0.0,0.0,92,0.02,,-RA,0.11,VWS V14.01,2014-01-14 19:47:00,
2014-01-14 14:52:00,43.5,41.3,29.66,SE,136,0.0,0.0,92,0.02,,-RA,0.11,VWS V14.01,2014-01-14 19:52:00,
2014-01-14 14:57:00,43.4,41.2,29.66,SE,136,0.0,0.0,92,0.02,,-RA,0.11,VWS V14.01,2014-01-14 19:57:00,
2014-01-14 15:00:00,43.4,41.2,29.66,SE,136,0.0,0.0,92,0.03,,OVC100,0.12,VWS V14.01,2014-01-14 20:00:00,
2014-01-14 15:02:00,43.4,41.2,29.66,SE,136,0.0,0.0,92,0.03,,-RA,0.12,VWS V14.01,2014-01-14 20:02:00,
2014-01-14 15:07:00,43.2,41.0,29.66,SE,136,0.0,0.0,92,0.03,,-RA,0.12,VWS V14.01,2014-01-14 20:07:00,
2014-01-14 15:12:00,43.1,40.9,29.65,SE,136,0.0,0.0,92,0.03,,-RA,0.12,VWS V14.01,2014-01-14 20:12:00,
2014-01-14 15:15:00,43.1,40.9,29.65,SE,136,0.0,0.0,92,0.03,,OVC100,0.12,VWS V14.01,2014-01-14 20:15:00,
2014-01-14 15:17:00,43.0,40.8,29.65,SE,136,0.0,1.0,92,0.02,,-RA,0.12,VWS V14.01,2014-01-14 20:17:00,
2014-01-14 15:22:00,42.9,40.7,29.66,SE,136,0.0,1.0,92,0.03,,-RA,0.13,VWS V14.01,2014-01-14 20:22:00,
2014-01-14 15:27:00,42.9,40.7,29.66,SE,136,0.0,1.0,92,0.03,,-RA,0.13,VWS V14.01,2014-01-14 20:27:00,
2014-01-14 15:30:00,42.9,40.7,29.66,SE,136,0.0,1.0,92,0.03,,OVC100,0.13,VWS V14.01,2014-01-14 20:30:00,
2014-01-14 15:32:00,42.9,40.7,29.66,SE,136,0.0,0.0,92,0.02,,-RA,0.13,VWS V14.01,2014-01-14 20:32:00,
2014-01-14 15:37:00,42.9,40.7,29.66,SE,136,0.0,0.0,92,0.02,,-RA,0.13,VWS V14.01,2014-01-14 20:37:00,
2014-01-14 15:42:00,42.9,40.7,29.67,SE,136,0.0,0.0,92,0.02,,-RA,0.13,VWS V14.01,2014-01-14 20:42:00,
2014-01-14 15:45:00,42.9,40.7,29.67,SE,136,0.0,0.0,92,0.02,,CLR,0.13,VWS V14.01,2014-01-14 20:45:00,
2014-01-14 15:47:00,42.9,40.7,29.67,SE,136,0.0,0.0,92,0.02,,-RA,0.13,VWS V14.01,2014-01-14 20:47:00,
2014-01-14 15:52:00,42.9,40.7,29.66,SE,136,0.0,0.0,92,0.02,,-RA,0.13,VWS V14.01,2014-01-14 20:52:00,
2014-01-14 15:57:00,42.8,40.6,29.66,SE,136,0.0,0.0,92,0.03,,-RA,0.14,VWS V14.01,2014-01-14 20:57:00,
2014-01-14 16:00:00,42.7,40.5,29.66,SE,136,0.0,0.0,92,0.03,,CLR,0.14,VWS V14.01,2014-01-14 21:00:00,
2014-01-14 16:02:00,42.7,40.5,29.66,SE,136,0.0,0.0,92,0.02,,-RA,0.14,VWS V14.01,2014-01-14 21:02:00,
2014-01-14 16:07:00,42.6,40.4,29.66,SE,136,0.0,0.0,92,0.02,,-RA,0.14,VWS V14.01,2014-01-14 21:07:00,
2014-01-14 16:12:00,42.5,40.3,29.66,SE,136,0.0,0.0,92,0.02,,-RA,0.14,VWS V14.01,2014-01-14 21:12:00,
2014-01-14 16:15:00,42.5,41.4,29.66,SE,136,0.0,0.0,96,0.02,,CLR,0.14,VWS V14.01,2014-01-14 21:15:00,
2014-01-14 16:17:00,42.4,40.2,29.66,SE,136,0.0,0.0,92,0.02,,-RA,0.14,VWS V14.01,2014-01-14 21:17:00,
2014-01-14 16:22:00,42.4,40.2,29.66,SE,136,0.0,0.0,92,0.03,,-RA,0.15,VWS V14.01,2014-01-14 21:22:00,
2014-01-14 16:27:00,42.4,40.2,29.66,SE,136,0.0,0.0,92,0.03,,-RA,0.15,VWS V14.01,2014-01-14 21:27:00,
2014-01-14 16:30:00,42.4,40.2,29.66,SE,136,0.0,0.0,92,0.03,,CLR,0.15,VWS V14.01,2014-01-14 21:30:00,
2014-01-14 16:32:00,42.4,40.2,29.66,SE,136,0.0,0.0,92,0.02,,-RA,0.15,VWS V14.01,2014-01-14 21:32:00,
2014-01-14 16:37:00,42.4,40.2,29.67,SE,136,0.0,0.0,92,0.02,,-RA,0.15,VWS V14.01,2014-01-14 21:37:00,
2014-01-14 16:42:00,42.4,40.2,29.66,SE,136,0.0,0.0,92,0.02,,-RA,0.15,VWS V14.01,2014-01-14 21:42:00,
2014-01-14 16:45:00,42.4,40.2,29.66,SE,136,0.0,0.0,92,0.02,,CLR,0.15,VWS V14.01,2014-01-14 21:45:00,
2014-01-14 16:47:00,42.4,40.2,29.66,SE,136,0.0,0.0,92,0.02,,-RA,0.15,VWS V14.01,2014-01-14 21:47:00,
2014-01-14 16:51:00,42.3,40.2,29.65,SE,136,0.0,0.0,92,0.02,,-RA,0.15,VWS V14.01,2014-01-14 21:51:00,
2014-01-14 16:56:00,42.3,40.2,29.65,SE,136,0.0,0.0,92,0.03,,-RA,0.16,VWS V14.01,2014-01-14 21:56:00,
2014-01-14 17:00:00,42.3,40.2,29.65,SE,136,0.0,0.0,92,0.03,,OVC100,0.16,VWS V14.01,2014-01-14 22:00:00,
2014-01-14 17:01:00,42.4,40.2,29.65,SE,136,0.0,0.0,92,0.02,,-RA,0.16,VWS V14.01,2014-01-14 22:01:00,
2014-01-14 17:06:00,42.3,40.2,29.65,SE,136,0.0,0.0,92,0.02,,-RA,0.16,VWS V14.01,2014-01-14 22:06:00,
2014-01-14 17:11:00,42.3,40.2,29.65,SE,136,0.0,0.0,92,0.02,,-RA,0.16,VWS V14.01,2014-01-14 22:11:00,
2014-01-14 17:15:00,42.2,40.0,29.65,SE,136,0.0,0.0,92,0.02,,OVC100,0.16,VWS V14.01,2014-01-14 22:15:00,
2014-01-14 17:16:00,42.2,40.0,29.65,SE,136,0.0,0.0,92,0.02,,-RA,0.16,VWS V14.01,2014-01-14 22:16:00,
2014-01-14 17:21:00,42.0,39.8,29.65,SE,136,0.0,0.0,92,0.03,,-RA,0.17,VWS V14.01,2014-01-14 22:21:00,
2014-01-14 17:26:00,41.8,39.7,29.65,SE,136,0.0,0.0,92,0.03,,-RA,0.17,VWS V14.01,2014-01-14 22:26:00,
2014-01-14 17:30:00,41.8,39.7,29.65,SE,136,0.0,0.0,92,0.03,,OVC100,0.17,VWS V14.01,2014-01-14 22:30:00,
2014-01-14 17:31:00,41.8,39.7,29.66,SE,136,0.0,1.0,92,0.02,,-RA,0.17,VWS V14.01,2014-01-14 22:31:00,
2014-01-14 17:36:00,41.7,39.5,29.66,SE,136,0.0,1.0,92,0.02,,-RA,0.17,VWS V14.01,2014-01-14 22:36:00,
2014-01-14 17:41:00,41.6,39.5,29.67,SE,136,0.0,1.0,92,0.02,,-RA,0.17,VWS V14.01,2014-01-14 22:41:00,
2014-01-14 17:45:00,41.6,39.5,29.67,SE,136,0.0,1.0,92,0.02,,OVC100,0.17,VWS V14.01,2014-01-14 22:45:00,
2014-01-14 17:46:00,41.7,39.5,29.67,SE,136,0.0,0.0,92,0.02,,-RA,0.17,VWS V14.01,2014-01-14 22:46:00,
2014-01-14 17:51:00,41.7,39.5,29.67,SE,136,0.0,0.0,92,0.02,,-RA,0.17,VWS V14.01,2014-01-14 22:51:00,
2014-01-14 17:56:00,41.7,39.5,29.67,SE,136,0.0,0.0,92,0.02,,-RA,0.17,VWS V14.01,2014-01-14 22:56:00,
2014-01-14 18:00:00,41.7,39.5,29.67,SE,136,0.0,0.0,92,0.03,,CLR,0.18,VWS V14.01,2014-01-14 23:00:00,
2014-01-14 18:01:00,41.8,39.7,29.67,SE,136,0.0,0.0,92,0.02,,-RA,0.18,VWS V14.01,2014-01-14 23:01:00,
2014-01-14 18:06:00,41.8,39.7,29.68,SE,136,0.0,0.0,92,0.02,,-RA,0.18,VWS V14.01,2014-01-14 23:06:00,
2014-01-14 18:11:00,41.8,39.7,29.68,SE,136,0.0,0.0,92,0.02,,-RA,0.18,VWS V14.01,2014-01-14 23:11:00,
2014-01-14 18:15:00,41.8,39.7,29.68,SE,136,0.0,1.0,92,0.02,,CLR,0.18,VWS V14.01,2014-01-14 23:15:00,
2014-01-14 18:16:00,41.9,39.8,29.68,SE,136,0.0,0.0,92,0.02,,-RA,0.18,VWS V14.01,2014-01-14 23:16:00,
2014-01-14 18:21:00,42.0,39.8,29.67,SE,136,0.0,0.0,92,0.02,,-RA,0.18,VWS V14.01,2014-01-14 23:21:00,
2014-01-14 18:26:00,42.0,39.8,29.67,SE,136,0.0,0.0,92,0.03,,-RA,0.19,VWS V14.01,2014-01-14 23:26:00,
2014-01-14 18:30:00,42.0,39.8,29.67,SE,136,0.0,0.0,92,0.03,,CLR,0.19,VWS V14.01,2014-01-14 23:30:00,
2014-01-14 18:31:00,42.0,39.8,29.68,SE,136,0.0,0.0,92,0.02,,-RA,0.19,VWS V14.01,2014-01-14 23:31:00,
2014-01-14 18:36:00,42.0,39.8,29.68,SE,136,0.0,0.0,92,0.02,,-RA,0.19,VWS V14.01,2014-01-14 23:36:00,
2014-01-14 18:41:00,41.8,39.7,29.68,SE,136,0.0,0.0,92,0.02,,-RA,0.19,VWS V14.01,2014-01-14 23:41:00,
2014-01-14 18:45:00,41.8,39.7,29.67,SE,136,0.0,0.0,92,0.02,,CLR,0.19,VWS V14.01,2014-01-14 23:45:00,
2014-01-14 18:46:00,41.8,39.7,29.67,SE,136,0.0,0.0,92,0.02,,-RA,0.19,VWS V14.01,2014-01-14 23:46:00,
2014-01-14 18:51:00,41.6,39.5,29.66,SE,136,0.0,0.0,92,0.02,,-RA,0.19,VWS V14.01,2014-01-14 23:51:00,
2014-01-14 18:56:00,41.5,39.3,29.67,SE,136,0.0,1.0,92,0.02,,-RA,0.19,VWS V14.01,2014-01-14 23:56:00,
2014-01-14 19:00:00,41.4,39.3,29.67,SE,136,0.0,1.0,92,0.02,,CLR,0.19,VWS V14.01,2014-01-15 00:00:00,
2014-01-14 19:01:00,41.4,39.2,29.67,SE,136,0.0,0.0,92,0.01,,-RA,0.19,VWS V14.01,2014-01-15 00:01:00,
2014-01-14 19:06:00,41.2,39.1,29.67,SE,136,0.0,0.0,92,0.01,,-RA,0.19,VWS V14.01,2014-01-15 00:06:00,
2014-01-14 19:11:00,41.1,39.0,29.67,SE,136,0.0,0.0,92,0.02,,-RA,0.20,VWS V14.01,2014-01-15 00:11:00,
2014-01-14 19:15:00,41.1,39.0,29.67,SE,136,0.0,0.0,92,0.02,,CLR,0.20,VWS V14.01,2014-01-15 00:15:00,
2014-01-14 19:16:00,41.1,39.0,29.66,SE,136,0.0,0.0,92,0.02,,-RA,0.20,VWS V14.01,2014-01-15 00:16:00,
2014-01-14 19:21:00,41.0,38.9,29.67,SE,136,0.0,1.0,92,0.02,,-RA,0.20,VWS V14.01,2014-01-15 00:21:00,
2014-01-14 19:26:00,41.0,38.9,29.67,SE,136,1.0,1.0,92,0.02,,-RA,0.20,VWS V14.01,2014-01-15 00:26:00,
2014-01-14 19:30:00,41.1,39.0,29.68,SSE,159,0.0,2.0,92,0.02,,OVC100,0.20,VWS V14.01,2014-01-15 00:30:00,
2014-01-14 19:31:00,41.1,39.0,29.68,SSE,159,0.0,0.0,92,0.01,,-RA,0.20,VWS V14.01,2014-01-15 00:31:00,
2014-01-14 19:36:00,41.2,39.1,29.67,SSE,159,0.0,0.0,92,0.01,,-RA,0.20,VWS V14.01,2014-01-15 00:36:00,
2014-01-14 19:41:00,41.1,39.0,29.67,SSE,159,0.0,0.0,92,0.02,,-RA,0.21,VWS V14.01,2014-01-15 00:41:00,
2014-01-14 19:45:00,41.0,38.9,29.67,SSE,159,0.0,0.0,92,0.02,,OVC100,0.21,VWS V14.01,2014-01-15 00:45:00,
2014-01-14 19:46:00,40.9,38.8,29.67,SSE,159,0.0,0.0,92,0.02,,-RA,0.21,VWS V14.01,2014-01-15 00:46:00,
2014-01-14 19:51:00,40.8,38.7,29.68,SSE,159,0.0,0.0,92,0.02,,-RA,0.21,VWS V14.01,2014-01-15 00:51:00,
2014-01-14 19:56:00,40.8,38.7,29.69,SSE,159,0.0,0.0,92,0.02,,-RA,0.21,VWS V14.01,2014-01-15 00:56:00,
2014-01-14 20:00:00,40.8,38.7,29.70,SSE,159,0.0,0.0,92,0.02,,OVC100,0.21,VWS V14.01,2014-01-15 01:00:00,
2014-01-14 20:01:00,40.8,38.7,29.70,SSE,159,0.0,0.0,92,0.02,,-RA,0.21,VWS V14.01,2014-01-15 01:01:00,
2014-01-14 20:06:00,40.8,38.7,29.71,SSE,159,0.0,0.0,92,0.02,,-RA,0.21,VWS V14.01,2014-01-15 01:06:00,
2014-01-14 20:11:00,40.8,38.7,29.71,SSE,159,0.0,0.0,92,0.02,,-RA,0.21,VWS V14.01,2014-01-15 01:11:00,
2014-01-14 20:15:00,40.7,38.6,29.72,SSE,159,0.0,1.0,92,0.02,,CLR,0.21,VWS V14.01,2014-01-15 01:15:00,
2014-01-14 20:16:00,40.8,38.7,29.72,SSE,159,0.0,0.0,92,0.01,,-RA,0.21,VWS V14.01,2014-01-15 01:16:00,
2014-01-14 20:21:00,40.9,38.8,29.73,SSE,159,0.0,0.0,92,0.01,,-RA,0.21,VWS V14.01,2014-01-15 01:21:00,
2014-01-14 20:26:00,40.9,38.8,29.73,SSE,159,0.0,0.0,92,0.01,,-RA,0.21,VWS V14.01,2014-01-15 01:26:00,
2014-01-14 20:30:00,40.9,38.8,29.73,SSE,159,0.0,1.0,92,0.01,,CLR,0.21,VWS V14.01,2014-01-15 01:30:00,
2014-01-14 20:31:00,40.9,38.8,29.73,SSE,159,0.0,0.0,92,0.01,,-RA,0.21,VWS V14.01,2014-01-15 01:31:00,
2014-01-14 20:36:00,41.0,40.0,29.74,SSE,159,0.0,0.0,96,0.02,,-RA,0.22,VWS V14.01,2014-01-15 01:36:00,
2014-01-14 20:41:00,41.1,39.2,29.75,SSE,159,0.0,0.0,93,0.02,,-RA,0.22,VWS V14.01,2014-01-15 01:41:00,
2014-01-14 20:45:00,41.2,39.3,29.76,SSE,163,0.0,1.0,93,0.02,,OVC100,0.22,VWS V14.01,2014-01-15 01:45:00,
2014-01-14 20:46:00,41.3,39.4,29.76,SSE,163,0.0,0.0,93,0.01,,-RA,0.22,VWS V14.01,2014-01-15 01:46:00,
2014-01-14 20:51:00,41.2,39.3,29.76,SSE,163,0.0,0.0,93,0.01,,-RA,0.22,VWS V14.01,2014-01-15 01:51:00,
2014-01-14 20:56:00,41.1,39.0,29.76,SSE,163,0.0,1.0,92,0.01,,-RA,0.22,VWS V14.01,2014-01-15 01:56:00,
2014-01-14 21:00:00,41.1,39.2,29.76,SSE,163,0.0,1.0,93,0.01,,CLR,0.22,VWS V14.01,2014-01-15 02:00:00,
2014-01-14 21:01:00,41.1,39.2,29.76,SSE,163,0.0,0.0,93,0.01,,OVC015,0.22,VWS V14.01,2014-01-15 02:01:00,
2014-01-14 21:06:00,41.1,39.2,29.77,SSE,163,0.0,0.0,93,0.01,,OVC015,0.22,VWS V14.01,2014-01-15 02:06:00,
2014-01-14 21:11:00,41.1,39.2,29.77,SSE,163,0.0,0.0,93,0.02,,OVC015,0.23,VWS V14.01,2014-01-15 02:11:00,
2014-01-14 21:15:00,41.2,39.3,29.77,SSE,163,0.0,0.0,93,0.02,,OVC100,0.23,VWS V14.01,2014-01-15 02:15:00,
2014-01-14 21:16:00,41.2,39.3,29.77,SSE,163,0.0,0.0,93,0.02,,OVC015,0.23,VWS V14.01,2014-01-15 02:16:00,
2014-01-14 21:21:00,41.3,39.4,29.77,SSE,163,0.0,0.0,93,0.02,,OVC015,0.23,VWS V14.01,2014-01-15 02:21:00,
2014-01-14 21:26:00,41.5,39.6,29.77,SSE,163,0.0,2.0,93,0.02,,OVC015,0.23,VWS V14.01,2014-01-15 02:26:00,
2014-01-14 21:30:00,41.5,39.6,29.78,SSE,163,0.0,2.0,93,0.02,,OVC100,0.23,VWS V14.01,2014-01-15 02:30:00,
2014-01-14 21:31:00,41.5,39.6,29.78,SSE,163,0.0,0.0,93,0.02,,OVC015,0.23,VWS V14.01,2014-01-15 02:31:00,
2014-01-14 21:36:00,41.5,39.3,29.78,SSE,163,0.0,0.0,92,0.02,,OVC015,0.23,VWS V14.01,2014-01-15 02:36:00,
2014-01-14 21:41:00,41.4,39.2,29.78,SSE,163,0.0,0.0,92,0.02,,OVC015,0.23,VWS V14.01,2014-01-15 02:41:00,
2014-01-14 21:45:00,41.3,39.2,29.78,SSE,163,0.0,0.0,92,0.02,,CLR,0.23,VWS V14.01,2014-01-15 02:45:00,
2014-01-14 21:46:00,41.3,39.2,29.78,SSE,163,0.0,0.0,92,0.01,,OVC015,0.23,VWS V14.01,2014-01-15 02:46:00,
2014-01-14 21:51:00,41.2,39.1,29.79,SSE,163,0.0,0.0,92,0.01,,OVC015,0.23,VWS V14.01,2014-01-15 02:51:00,
2014-01-14 21:56:00,41.1,39.2,29.79,SSE,163,0.0,0.0,93,0.01,,OVC015,0.23,VWS V14.01,2014-01-15 02:56:00,
2014-01-14 22:00:00,41.1,39.2,29.80,SSE,163,0.0,0.0,93,0.01,,OVC100,0.23,VWS V14.01,2014-01-15 03:00:00,
2014-01-14 22:01:00,41.1,39.2,29.80,SSE,163,0.0,0.0,93,0.01,,-RA,0.23,VWS V14.01,2014-01-15 03:01:00,
2014-01-14 22:06:00,41.0,39.1,29.80,SSE,163,0.0,0.0,93,0.01,,-RA,0.23,VWS V14.01,2014-01-15 03:06:00,
2014-01-14 22:11:00,41.1,39.2,29.80,SSE,163,0.0,0.0,93,0.02,,-RA,0.24,VWS V14.01,2014-01-15 03:11:00,
2014-01-14 22:15:00,41.1,39.2,29.80,SSE,163,0.0,0.0,93,0.02,,OVC100,0.24,VWS V14.01,2014-01-15 03:15:00,
2014-01-14 22:16:00,41.1,39.2,29.80,SSE,163,0.0,1.0,93,0.01,,-RA,0.24,VWS V14.01,2014-01-15 03:16:00,
2014-01-14 22:21:00,41.0,38.9,29.80,SSE,163,0.0,1.0,92,0.01,,-RA,0.24,VWS V14.01,2014-01-15 03:21:00,
2014-01-14 22:26:00,40.9,38.8,29.79,SSE,163,0.0,1.0,92,0.01,,-RA,0.24,VWS V14.01,2014-01-15 03:26:00,
2014-01-14 22:30:00,40.9,38.8,29.80,SSE,163,0.0,1.0,92,0.01,,OVC100,0.24,VWS V14.01,2014-01-15 03:30:00,
2014-01-14 22:31:00,40.8,38.7,29.80,SSE,163,0.0,0.0,92,0.01,,-RA,0.24,VWS V14.01,2014-01-15 03:31:00,
2014-01-14 22:36:00,40.7,38.6,29.79,SSE,163,0.0,0.0,92,0.01,,-RA,0.24,VWS V14.01,2014-01-15 03:36:00,
2014-01-14 22:41:00,40.7,38.6,29.80,SSE,163,0.0,0.0,92,0.01,,-RA,0.24,VWS V14.01,2014-01-15 03:41:00,
2014-01-14 22:45:00,40.7,38.6,29.80,SSE,163,0.0,0.0,92,0.01,,OVC100,0.24,VWS V14.01,2014-01-15 03:45:00,
2014-01-14 22:46:00,40.7,38.8,29.79,SSE,163,0.0,0.0,93,0.01,,-RA,0.24,VWS V14.01,2014-01-15 03:46:00,
2014-01-14 22:51:00,40.7,38.8,29.79,SSE,163,0.0,0.0,93,0.01,,-RA,0.24,VWS V14.01,2014-01-15 03:51:00,
2014-01-14 22:56:00,40.6,38.7,29.80,SSE,163,0.0,0.0,93,0.02,,-RA,0.25,VWS V14.01,2014-01-15 03:56:00,
2014-01-14 23:00:00,40.6,38.7,29.80,SSE,163,0.0,0.0,93,0.02,,CLR,0.25,VWS V14.01,2014-01-15 04:00:00,
2014-01-14 23:01:00,40.6,38.7,29.79,SSE,163,0.0,0.0,93,0.02,,,0.25,VWS V14.01,2014-01-15 04:01:00,
2014-01-14 23:06:00,40.6,38.7,29.79,SSE,163,0.0,0.0,93,0.02,,,0.25,VWS V14.01,2014-01-15 04:06:00,
2014-01-14 23:11:00,40.5,38.6,29.79,SSE,163,0.0,0.0,93,0.02,,,0.25,VWS V14.01,2014-01-15 04:11:00,
2014-01-14 23:15:00,40.5,38.6,29.79,SSE,163,0.0,0.0,93,0.02,,OVC100,0.25,VWS V14.01,2014-01-15 04:15:00,
2014-01-14 23:16:00,40.5,38.6,29.79,SSE,163,0.0,0.0,93,0.01,,,0.25,VWS V14.01,2014-01-15 04:16:00,
2014-01-14 23:21:00,40.4,38.5,29.79,SSE,163,0.0,0.0,93,0.01,,,0.25,VWS V14.01,2014-01-15 04:21:00,
2014-01-14 23:26:00,40.4,38.5,29.79,SSE,163,0.0,0.0,93,0.01,,,0.25,VWS V14.01,2014-01-15 04:26:00,
2014-01-14 23:30:00,40.4,38.5,29.79,SSE,163,0.0,0.0,93,0.01,,CLR,0.25,VWS V14.01,2014-01-15 04:30:00,
2014-01-14 23:31:00,40.4,38.3,29.79,SSE,163,0.0,0.0,92,0.01,,,0.25,VWS V14.01,2014-01-15 04:31:00,
2014-01-14 23:36:00,40.3,38.2,29.80,SSE,163,0.0,0.0,92,0.01,,,0.25,VWS V14.01,2014-01-15 04:36:00,
2014-01-14 23:41:00,40.3,38.2,29.80,SSE,163,0.0,0.0,92,0.01,,,0.25,VWS V14.01,2014-01-15 04:41:00,
2014-01-14 23:45:00,40.3,38.2,29.80,SSE,163,0.0,0.0,92,0.01,,OVC100,0.25,VWS V14.01,2014-01-15 04:45:00,
2014-01-14 23:46:00,40.2,38.1,29.80,SSE,163,0.0,0.0,92,0.01,,,0.25,VWS V14.01,2014-01-15 04:46:00,
2014-01-14 23:51:00,40.2,38.1,29.80,SSE,163,0.0,1.0,92,0.01,,,0.25,VWS V14.01,2014-01-15 04:51:00,
2014-01-14 23:56:00,40.1,38.0,29.80,SSE,163,0.0,1.0,92,0.01,,,0.25,VWS V14.01,2014-01-15 04:56:00,